Temp_Advection
nan nan nan nan nan nan nan nan nan nan nan nan nan nan nan nan nan nan nan nan nan nan nan nan nan nan nan nan nan nan nan nan nan nan nan nan nan nan nan nan nan nan nan nan nan nan nan nan nan
nan 0 -0 -1 -0 0 -0 0 0 -0 -0 0 -0 -0 -0 0 0 0 0 -0 -0 -1 -0 -0 -0 0 -0 -1 -1 -1 -1 -0 -0 -0 -0 -0 -0 -0 -0 -0 -0 -0 -0 -0 -0 -0 -0 -0 nan
nan -0 -1 -0 0 -0 -0 -0 -0 0 0 0 0 0 -0 -0 0 0 0 -0 -0 -0 -0 -0 -0 0 -0 -0 -1 -1 -1 -0 -0 -0 0 0 0 -0 -0 -0 -0 -0 -0 -0 -0 -0 -0 -0 nan
nan -0 -1 -0 -0 -0 0 -0 -0 0 -0 -0 -0 0 0 0 0 0 0 0 -0 -0 -0 -0 -0 -0 0 0 0 -0 -0 -0 -0 -0 -0 -0 0 0 -0 -0 -0 -0 -0 -0 0 0 -0 -0 nan
nan -0 -0 -0 -0 0 -0 -0 -0 -0 0 0 -0 0 0 0 -0 -0 0 0 0 0 0 0 -0 -0 -0 0 0 0 0 0 0 0 -0 0 0 0 0 0 0 0 0 0 0 0 -0 0 nan
nan -0 -0 0 -0 -0 -0 -0 -0 -0 -0 0 0 -0 0 0 0 0 0 0 0 -0 0 0 0 0 -0 0 0 0 0 0 0 0 0 0 0 0 0 0 0 0 0 0 0 0 0 0 nan
nan -0 -0 -0 -0 -0 -0 -0 -0 -0 -0 -0 -0 -0 0 0 -0 0 0 0 -1 -0 0 0 0 0 0 -0 0 0 0 0 0 0 0 0 0 0 0 0 0 0 0 0 0 0 0 0 nan
nan -0 -0 0 -0 -0 -0 0 -0 -0 -0 0 -0 -0 -0 -0 0 0 1 1 -0 -0 0 0 0 0 0 0 0 0 0 0 0 0 0 0 0 0 0 -0 -0 0 0 0 0 0 0 0 nan
nan -0 0 0 -0 -0 -0 -0 0 -0 -0 0 0 -0 -0 -0 0 1 1 0 0 -0 0 0 1 1 0 1 1 0 0 0 0 0 0 0 0 0 0 0 0 0 0 0 0 0 0 0 nan
nan -0 -0 -0 -0 -0 -0 0 -0 -0 0 0 -0 -0 1 1 0 0 -0 -0 -0 -0 1 1 1 1 1 2 1 1 1 1 0 0 0 0 0 0 0 0 0 0 0 0 0 0 0 0 nan
nan -0 -0 0 0 -0 -1 -0 0 -1 -0 -0 -0 -0 -1 0 1 0 -0 -0 -0 1 1 0 1 1 1 1 1 0 0 1 1 1 0 1 1 1 1 0 0 0 0 0 0 0 0 1 nan
nan -0 -0 -0 0 -0 -1 -0 -1 -0 0 -0 -0 -0 -0 -0 -0 0 0 -0 0 1 1 1 0 -1 1 0 -0 0 1 1 0 0 1 1 2 1 1 0 -0 0 1 0 1 1 0 0 nan
nan -0 0 -0 -0 -0 -1 -1 -0 1 -0 -0 -0 -0 0 0 -0 0 0 -0 0 1 1 1 -1 -1 -1 1 0 -0 -0 0 1 0 -0 1 1 0 -0 -0 0 1 0 0 0 0 0 -0 nan
nan -0 -0 -0 0 0 -0 -0 0 -0 0 -0 -0 -0 0 0 0 0 0 0 0 1 1 0 -2 -1 -0 0 1 0 -0 1 0 -0 -1 -1 0 1 -1 -1 0 0 -0 -0 0 -0 -0 0 nan
nan -1 -1 0 0 0 -0 -1 0 -0 0 -0 -1 -0 -0 -0 0 0 0 0 0 0 1 -1 -1 1 -0 0 0 0 1 0 -0 0 -1 -2 -1 -0 -1 0 1 -0 -1 -0 -0 0 1 1 nan
nan -0 -0 0 0 -0 0 -1 -0 0 -0 -0 -1 -1 -0 -0 -0 -0 -0 -0 -0 0 1 1 1 -1 -2 0 1 1 0 0 1 1 -1 -2 -1 -0 0 1 1 -0 1 0 0 1 0 0 nan
nan 0 -0 -1 -0 0 0 -0 0 0 -0 -0 -0 -0 -0 -0 -1 -1 -1 -1 -1 -0 0 1 1 -1 -2 0 1 1 1 -0 1 1 -1 -2 -0 1 1 2 -0 -1 0 1 1 0 -0 -0 nan
nan -1 -1 -1 -0 -0 -0 -1 -0 1 0 -0 -0 -0 -0 -1 -1 -1 -1 -1 -1 -1 -0 0 1 -0 -0 1 -0 -0 -1 -0 0 0 1 2 1 1 1 0 -1 -0 1 1 -0 -0 1 0 nan
nan -0 -1 -1 -0 -0 -1 -1 -1 0 0 0 -1 -1 -1 -1 -1 -1 -1 -1 -1 -1 -1 -1 -1 1 1 1 -0 -2 -3 1 3 1 3 2 1 0 -1 -0 1 0 0 0 0 -0 0 0 nan
nan -0 -1 -1 -0 0 -0 -1 -1 -0 0 0 -1 -2 -1 -1 -1 -1 -1 -1 -1 -1 -0 1 -0 -1 0 1 0 -1 0 2 1 0 1 3 1 -3 -1 1 -1 -0 1 1 0 0 0 1 nan
nan 0 -0 -1 -1 -1 0 -1 -1 -0 -0 -2 -1 -1 -1 -1 -1 -1 -1 -1 -1 -1 -2 -1 1 1 -0 1 2 2 1 0 -1 -0 1 1 1 1 0 -0 0 1 0 -1 -0 1 1 1 nan
nan -0 0 -0 -0 -1 -0 -0 -2 -0 -1 -1 -1 -1 -1 -1 -1 -1 -1 -1 -1 -1 -3 -4 -2 -1 -0 0 1 1 1 -0 -1 0 0 2 2 0 -2 -1 -0 0 0 0 1 2 2 0 nan
nan -0 -0 -0 -0 -1 -0 -0 -1 -0 -1 -0 -0 -0 -1 -1 -1 -1 -1 -1 -1 -0 -1 -3 -2 -2 -1 -0 1 1 1 -0 -1 -0 1 1 1 -2 -1 1 2 2 2 2 1 2 1 0 nan
nan -0 -1 -0 0 0 -0 -0 -0 -0 -0 -0 -0 -0 -0 -0 -0 -1 -1 -1 -1 -1 -0 -2 -2 -2 -1 -2 -0 1 1 1 -0 0 1 1 -0 -1 1 2 1 1 2 1 0 1 1 1 nan
nan -0 -0 -0 0 -0 0 -0 0 -0 -0 -0 -0 -1 -0 -0 -0 -0 -0 -1 -1 -1 -0 -2 -3 -3 -1 -1 -1 0 0 -0 -0 -0 1 0 -0 0 0 0 -0 1 1 -0 -1 0 2 1 nan
nan -0 0 -0 -1 -1 -0 -0 -0 -1 -0 -0 -0 -0 -0 -0 -0 -0 -0 -0 -1 -0 -0 -1 -2 -2 -2 -1 -0 -0 -0 0 0 0 0 0 0 0 1 0 0 1 1 0 0 1 1 0 nan
nan -0 -0 0 -0 -1 -1 1 -0 0 -0 -0 -0 -0 -0 -1 -0 -0 -0 -0 -1 -1 -0 -0 -1 -1 -1 -1 -1 -0 -0 0 0 0 1 1 1 2 1 1 1 0 -0 0 -0 1 1 1 nan
nan -0 0 0 0 -1 -1 -1 1 0 0 -0 -0 -0 -0 -0 -1 -1 -1 -0 -0 -1 -1 0 -1 -1 -1 -1 -1 -0 -0 0 0 1 1 1 1 1 1 1 0 0 0 1 1 0 0 0 nan
nan 0 0 -0 0 0 -1 -1 -0 -0 -0 0 0 0 0 -0 -1 -0 -0 -1 -1 -1 -1 -0 -1 -1 -0 -0 -0 -0 -0 0 0 0 1 1 0 0 1 1 0 0 1 0 0 -0 0 0 nan
nan nan nan nan nan nan nan nan nan nan nan nan nan nan nan nan nan nan nan nan nan nan nan nan nan nan nan nan nan nan nan nan nan nan nan nan nan nan nan nan nan nan nan nan nan nan nan nan nan
Wind_Speed
7 10 5 3 6 6 6 7 3 3 2 3 2 4 7 8 7 6 4 9 19 22 23 23 22 20 19 20 20 18 17 15 13 13 12 12 11 11 10 10 10 10 9 9 8 8 8 8 7
9 7 1 3 6 6 7 2 3 3 3 2 4 7 7 6 4 4 2 11 21 23 23 23 22 20 20 20 20 19 18 16 16 15 14 13 12 12 12 11 10 9 8 7 7 6 6 7 7
9 4 5 3 1 6 4 3 6 4 7 7 4 5 7 5 3 3 4 12 25 26 24 23 23 22 21 20 19 19 19 18 17 16 15 14 13 12 11 11 10 10 9 8 8 8 7 7 6
5 3 5 4 8 8 7 6 4 6 3 5 6 8 3 3 1 1 5 15 27 28 26 24 24 24 22 22 21 20 20 20 19 18 17 16 15 13 12 11 11 11 10 9 8 8 8 7 6
3 3 3 3 8 8 8 11 8 4 5 5 7 11 5 3 4 3 3 15 27 28 28 25 25 25 24 23 22 22 22 22 21 20 19 17 16 15 14 14 13 12 11 11 10 9 8 8 7
4 3 4 5 6 5 7 13 6 6 4 7 8 13 5 3 5 7 7 13 23 27 29 27 27 26 25 25 24 23 23 22 22 22 21 20 18 17 17 16 15 14 13 12 12 11 10 10 9
5 4 2 1 2 4 7 13 6 11 6 7 5 10 2 2 8 9 11 14 20 27 30 30 30 29 28 27 27 26 25 24 24 23 22 22 21 19 19 18 17 16 15 14 14 13 13 13 12
3 3 2 0 1 2 6 12 8 10 6 8 5 5 5 2 4 12 14 17 20 26 30 32 33 33 32 31 30 29 28 27 26 25 25 24 23 22 21 21 20 18 17 16 16 16 15 15 14
1 5 4 2 4 5 8 10 7 10 9 11 6 9 6 11 14 12 16 19 23 28 30 33 35 36 36 35 34 33 31 30 29 28 27 26 26 26 25 24 23 21 19 19 18 17 17 16 16
5 5 2 2 6 7 10 10 14 11 13 5 12 11 14 13 13 13 18 22 25 30 33 32 34 36 37 35 36 36 35 34 34 33 32 31 31 29 27 26 25 22 22 21 20 19 18 19 18
1 5 2 8 7 9 16 18 7 15 14 12 12 16 19 20 19 19 21 24 26 26 28 34 35 36 35 33 30 30 36 37 37 37 36 34 32 30 29 27 27 26 25 24 22 21 21 20 16
8 5 8 8 6 15 18 21 20 18 18 10 8 17 18 17 18 19 21 22 25 25 27 27 30 37 38 30 30 29 29 31 34 35 38 35 32 29 28 26 24 26 23 25 22 18 19 19 19
9 5 5 11 15 17 18 18 16 17 7 11 17 18 17 16 17 19 19 20 21 27 25 26 29 35 38 40 31 32 32 32 30 31 34 37 32 29 27 28 24 22 21 21 22 21 18 19 21
5 13 16 15 17 5 7 10 9 1 12 21 20 20 19 19 17 16 15 19 21 24 27 26 31 35 37 39 40 37 37 35 33 31 32 38 38 33 28 29 27 25 23 21 22 21 20 20 20
8 14 16 14 2 3 6 12 6 6 20 24 24 23 22 19 17 16 17 18 18 21 23 27 33 36 38 39 41 42 40 38 39 37 38 40 40 40 36 32 29 25 24 26 25 25 24 22 21
11 11 9 2 10 2 13 14 7 22 21 22 25 22 19 19 18 17 15 15 13 16 19 23 26 33 38 41 42 43 43 44 45 42 41 44 43 41 40 38 33 30 27 24 25 23 21 21 23
9 11 14 14 8 16 13 22 16 13 22 24 19 21 20 18 18 19 18 14 12 11 14 19 23 29 35 39 43 46 47 47 47 46 45 47 47 44 43 38 32 33 31 29 25 20 22 22 22
16 16 17 19 15 19 20 21 19 20 19 22 17 24 17 18 18 19 19 18 16 14 11 14 19 25 30 34 39 46 49 52 52 51 51 50 48 46 44 40 38 35 33 28 25 27 22 21 20
11 15 18 18 15 16 19 24 23 27 23 17 23 20 17 19 18 17 20 19 19 17 16 15 15 23 28 29 31 39 51 56 55 54 53 49 50 49 46 43 38 40 36 33 29 28 27 25 25
11 16 18 16 15 15 21 25 22 21 18 19 16 16 17 19 21 21 22 23 24 22 20 20 20 21 21 29 33 38 41 43 50 48 50 48 46 52 51 40 39 28 33 30 29 37 34 33 28
14 12 15 19 19 19 20 20 19 12 10 14 15 15 16 19 22 24 27 27 26 25 24 23 24 26 26 24 34 36 35 36 34 43 42 43 45 47 50 43 42 40 34 34 42 42 37 33 27
15 13 14 16 17 16 15 21 19 12 13 12 14 17 20 23 24 24 29 31 31 30 27 26 25 26 27 22 24 37 38 35 37 28 27 29 31 39 43 39 44 39 41 37 42 38 36 31 29
13 11 14 17 18 19 17 10 13 4 5 8 13 15 18 20 23 27 29 30 30 31 30 29 28 25 27 23 20 31 38 36 26 24 24 25 30 31 28 31 46 45 45 39 43 39 32 29 36
9 11 16 17 13 11 2 5 9 3 2 5 9 14 17 21 24 26 28 29 31 34 33 34 32 29 28 25 21 26 31 32 25 22 24 24 28 24 22 27 33 36 38 35 40 37 34 35 36
12 12 10 6 6 10 3 13 13 6 4 5 9 15 18 22 25 27 31 34 36 37 37 36 37 31 29 25 20 15 20 25 22 22 22 21 21 24 20 24 27 31 32 33 39 38 28 28 20
10 7 5 7 9 17 18 10 5 9 6 4 7 12 18 22 25 28 30 31 34 36 38 34 39 34 25 20 16 9 11 14 18 22 23 24 23 26 29 32 36 40 31 10 32 21 27 18 22
3 7 8 12 18 16 13 18 8 10 6 3 9 15 21 24 27 28 30 31 33 34 36 32 35 32 23 18 13 13 12 16 16 18 20 20 21 22 24 29 29 21 12 4 8 10 15 14 14
10 10 7 9 6 11 13 21 18 11 4 4 10 17 23 25 29 30 29 30 31 32 33 30 31 28 22 15 9 6 5 7 8 11 15 21 25 26 26 20 7 10 9 15 16 4 10 11 11
12 13 12 10 12 16 17 15 4 3 1 6 13 21 28 30 31 29 30 30 31 31 30 28 27 24 21 12 3 2 5 9 9 13 18 19 20 16 13 12 13 14 16 13 13 12 8 6 6
10 13 11 9 14 10 12 20 10 7 10 17 22 23 29 26 26 26 28 29 29 30 30 27 25 21 15 9 8 10 9 12 13 16 15 13 14 16 17 18 18 17 15 14 10 7 5 4 4
Wind_Direction
335 331 330 259 234 243 107 80 357 72 151 32 108 267 338 327 337 3 324 183 170 172 178 169 169 169 173 178 184 188 192 192 183 176 176 172 170 170 171 170 167 163 159 154 147 142 135 132 131
334 337 243 252 254 188 93 38 66 21 15 4 233 244 268 333 315 300 309 194 175 179 179 174 175 176 175 178 184 190 195 191 183 180 179 179 181 183 182 178 176 174 173 169 163 159 151 153 156
338 341 263 262 257 53 72 20 338 313 285 259 248 275 304 336 320 298 269 190 177 182 183 181 180 185 181 181 184 187 188 187 187 187 187 189 191 192 193 191 191 189 189 188 183 178 176 177 179
331 288 237 269 98 72 37 358 316 278 203 239 258 283 265 272 266 256 292 186 180 185 188 186 186 189 191 190 189 189 190 190 190 191 193 196 199 200 202 203 204 203 204 204 202 198 195 195 201
320 260 234 131 91 83 50 21 25 321 277 241 254 281 274 240 216 196 226 187 187 190 192 191 194 195 197 199 198 197 197 197 196 197 201 203 206 207 208 210 211 213 214 214 214 214 214 216 222
247 271 233 171 117 92 54 4 344 4 343 268 261 271 293 243 193 192 193 192 190 198 199 200 200 201 204 205 208 207 208 207 206 206 206 208 212 215 217 216 217 218 219 219 222 225 227 228 230
327 310 22 100 99 164 11 349 11 335 318 24 304 277 350 234 203 204 199 211 199 205 206 208 207 206 208 211 212 215 215 216 217 217 216 216 217 220 222 225 226 224 223 225 227 228 231 234 237
345 285 217 141 28 72 8 349 343 350 4 333 335 311 356 60 246 215 212 213 218 211 213 214 214 214 213 214 216 217 220 221 223 223 225 226 225 225 227 228 228 229 229 229 229 231 234 237 240
265 243 227 195 289 341 342 335 344 324 291 327 327 304 330 314 306 240 217 212 216 219 218 218 217 219 218 219 221 220 221 223 225 228 229 230 229 230 230 230 232 232 233 232 233 234 236 240 245
287 273 344 355 314 298 303 313 318 313 308 302 327 314 291 294 279 244 228 224 218 222 221 221 220 220 221 219 222 223 224 224 224 226 229 229 231 232 232 234 233 234 236 237 238 238 239 241 243
303 298 337 288 300 310 308 299 299 293 289 350 326 321 299 277 272 259 251 240 234 229 222 221 225 222 221 219 219 223 224 227 228 229 229 232 232 232 234 233 236 234 235 238 239 241 243 245 241
280 263 280 300 294 303 297 302 294 283 288 323 335 331 327 283 268 265 267 259 246 238 231 223 221 227 228 221 224 223 223 225 228 231 232 228 231 232 230 232 232 236 234 239 236 238 239 243 244
261 296 276 290 294 291 297 282 290 287 355 332 317 325 331 331 287 273 270 266 256 241 237 228 225 232 231 233 226 228 227 230 229 229 234 232 229 232 233 232 230 230 231 235 236 239 239 246 251
335 297 292 293 294 287 290 306 290 60 342 327 329 325 323 320 312 295 282 274 256 245 238 233 233 236 237 238 237 235 236 232 234 231 232 238 233 233 232 237 236 235 233 236 240 241 244 249 248
286 291 298 282 292 324 322 263 240 338 327 321 323 321 318 317 320 306 299 289 278 257 249 238 246 242 245 243 244 243 242 241 239 238 237 237 239 236 237 238 237 238 240 243 245 248 252 250 254
279 280 278 98 333 82 329 296 343 312 321 317 318 319 324 322 323 335 335 323 299 278 258 250 243 248 249 251 248 247 247 246 246 242 241 244 241 241 241 240 240 240 240 243 248 249 250 252 257
219 285 309 301 298 311 305 301 300 318 312 311 313 320 321 324 342 341 343 338 329 301 275 259 249 249 259 257 252 252 251 250 252 248 245 246 247 243 240 240 237 241 244 247 248 246 251 254 258
322 308 302 301 316 308 307 298 309 304 312 304 310 316 320 345 346 351 351 348 343 335 304 278 263 257 268 267 261 252 253 253 251 252 252 250 249 246 242 238 242 247 247 245 244 253 253 255 256
295 291 295 299 320 308 302 300 305 307 301 298 314 322 352 338 344 348 350 347 340 336 332 320 294 270 266 256 251 252 250 252 251 249 250 247 247 247 244 243 246 248 247 248 255 259 261 254 257
298 297 293 308 304 311 302 296 294 292 302 312 15 6 356 350 350 354 356 353 348 341 331 327 323 314 285 259 255 256 261 253 251 249 250 248 243 245 247 243 241 242 243 241 259 272 260 254 250
293 291 306 308 308 288 291 298 294 318 337 47 38 16 8 5 360 358 358 357 355 348 337 330 325 321 314 286 256 252 253 249 244 245 242 246 243 246 244 237 238 236 226 232 245 247 246 242 247
299 329 309 300 306 301 321 296 298 314 62 50 27 15 10 4 359 358 356 355 355 349 341 331 322 315 313 305 263 245 244 246 246 246 246 237 235 239 247 238 229 234 221 222 227 243 240 236 244
302 317 298 295 289 293 287 264 293 26 22 21 17 17 11 8 5 0 356 354 350 349 346 339 332 327 319 306 287 258 246 247 253 249 243 238 231 248 264 248 227 227 220 221 232 238 234 239 244
319 293 293 280 270 271 343 288 301 346 22 47 27 26 15 8 4 360 358 355 354 354 348 343 337 337 327 315 296 264 255 243 246 249 242 232 243 253 246 235 228 225 224 229 233 236 245 241 228
336 318 307 276 233 274 250 296 271 135 120 46 20 14 9 7 2 356 356 357 356 351 350 343 343 342 337 335 314 279 254 245 250 247 244 238 229 225 225 223 213 217 230 244 239 232 232 231 220
306 309 292 296 301 301 302 266 320 100 125 39 11 5 1 1 359 354 351 349 351 352 348 343 344 341 341 332 317 289 234 241 233 234 231 224 216 224 223 215 209 210 220 205 220 218 216 209 212
10 263 353 285 274 270 265 268 166 175 171 1 1 359 358 353 351 348 346 347 345 345 348 341 343 336 336 330 319 300 257 235 231 232 225 222 201 194 194 204 211 198 191 264 280 166 199 208 214
247 326 271 214 276 275 276 293 293 173 213 330 355 352 345 342 341 342 343 344 341 340 343 342 342 335 328 326 329 320 303 262 241 211 176 154 141 139 135 138 152 192 226 206 242 226 202 202 203
284 258 247 272 269 271 282 274 87 73 69 353 341 332 338 335 337 338 339 339 339 338 339 342 338 335 331 314 332 64 97 115 128 129 134 140 141 142 149 172 199 171 158 160 179 188 202 191 187
276 265 256 254 277 276 280 269 320 237 264 307 305 315 327 324 327 332 334 336 337 338 339 340 330 332 338 336 55 64 85 102 110 121 115 120 130 133 127 130 138 141 139 143 153 168 160 161 144
Height
1527 1526 1524 1526 1520 1506 1512 1514 1512 1511 1510 1517 1518 1517 1515 1515 1514 1520 1517 1517 1521 1522 1523 1525 1526 1528 1532 1537 1540 1542 1544 1545 1546 1547 1549 1550 1551 1552 1553 1553 1553 1553 1554 1554 1555 1556 1556 1557 1557
1526 1525 1524 1522 1510 1510 1516 1513 1511 1512 1515 1519 1520 1518 1516 1513 1516 1517 1517 1515 1519 1522 1525 1527 1530 1531 1532 1535 1538 1541 1544 1544 1545 1546 1547 1549 1550 1550 1551 1551 1552 1553 1554 1555 1556 1556 1557 1557 1558
1526 1525 1524 1510 1509 1513 1517 1515 1514 1515 1516 1516 1516 1517 1515 1514 1516 1517 1514 1513 1516 1519 1523 1526 1528 1531 1533 1534 1536 1538 1540 1542 1545 1546 1547 1548 1549 1550 1551 1552 1553 1553 1554 1555 1555 1555 1557 1558 1558
1527 1528 1524 1510 1517 1521 1519 1517 1517 1514 1516 1517 1515 1513 1516 1515 1516 1515 1512 1512 1514 1517 1521 1524 1528 1530 1533 1534 1536 1537 1539 1540 1542 1544 1545 1547 1549 1550 1551 1552 1553 1554 1554 1555 1555 1555 1556 1557 1557
1527 1525 1513 1516 1523 1521 1521 1521 1518 1514 1512 1513 1515 1511 1514 1514 1513 1513 1513 1513 1515 1517 1519 1522 1525 1528 1530 1533 1535 1537 1538 1540 1541 1542 1544 1546 1547 1548 1549 1550 1551 1552 1553 1554 1554 1555 1555 1556 1556
1525 1523 1516 1517 1522 1522 1522 1523 1521 1517 1515 1513 1515 1511 1511 1512 1513 1513 1513 1514 1516 1517 1518 1520 1521 1525 1529 1532 1535 1536 1538 1540 1542 1542 1543 1544 1546 1547 1548 1549 1550 1551 1551 1552 1553 1553 1554 1554 1555
1527 1521 1521 1521 1523 1522 1523 1523 1520 1518 1515 1513 1514 1510 1510 1513 1513 1513 1513 1514 1514 1515 1517 1518 1520 1522 1525 1528 1531 1534 1536 1538 1540 1542 1543 1543 1545 1546 1547 1548 1550 1550 1550 1550 1551 1552 1552 1553 1553
1530 1526 1524 1523 1523 1521 1523 1523 1522 1519 1514 1517 1514 1506 1507 1513 1511 1512 1512 1512 1513 1513 1514 1515 1518 1520 1522 1524 1526 1529 1532 1534 1536 1538 1539 1541 1542 1543 1544 1545 1546 1547 1548 1549 1549 1550 1550 1551 1551
1529 1523 1521 1522 1522 1521 1523 1523 1519 1520 1517 1515 1514 1513 1513 1511 1509 1509 1509 1510 1509 1510 1510 1511 1513 1516 1518 1520 1522 1524 1526 1529 1532 1534 1536 1537 1538 1539 1541 1542 1543 1545 1545 1546 1547 1548 1549 1549 1549
1528 1523 1520 1524 1523 1522 1522 1521 1519 1518 1512 1512 1513 1512 1511 1508 1507 1506 1505 1505 1504 1504 1505 1507 1509 1511 1513 1516 1519 1521 1523 1524 1526 1527 1529 1531 1533 1535 1536 1538 1540 1541 1542 1543 1544 1545 1546 1546 1546
1529 1523 1524 1524 1524 1525 1522 1518 1517 1516 1508 1508 1512 1512 1509 1506 1505 1503 1502 1502 1501 1502 1502 1502 1504 1507 1509 1512 1514 1516 1517 1519 1521 1522 1524 1526 1528 1530 1532 1534 1535 1536 1537 1539 1540 1540 1541 1542 1543
1529 1525 1525 1524 1526 1525 1521 1518 1515 1511 1511 1511 1511 1509 1504 1501 1500 1499 1499 1500 1501 1501 1501 1501 1502 1502 1505 1510 1510 1512 1514 1514 1515 1516 1519 1522 1523 1525 1527 1529 1531 1532 1533 1534 1536 1537 1537 1537 1538
1527 1525 1526 1525 1524 1522 1520 1515 1512 1509 1512 1512 1509 1506 1502 1499 1497 1495 1495 1494 1494 1496 1499 1499 1498 1498 1500 1502 1505 1506 1507 1509 1511 1512 1512 1515 1517 1520 1522 1524 1526 1528 1529 1530 1531 1532 1534 1534 1533
1528 1527 1524 1521 1519 1519 1518 1511 1512 1508 1510 1508 1506 1503 1500 1497 1494 1492 1491 1489 1488 1490 1491 1492 1491 1492 1494 1496 1498 1499 1500 1502 1503 1506 1506 1506 1510 1513 1516 1518 1520 1522 1524 1526 1526 1527 1528 1528 1528
1528 1525 1518 1511 1517 1514 1517 1506 1504 1507 1508 1506 1503 1500 1497 1494 1492 1489 1487 1485 1484 1484 1487 1486 1484 1486 1487 1489 1490 1492 1493 1494 1495 1496 1499 1499 1501 1505 1508 1511 1513 1517 1519 1520 1521 1521 1522 1523 1524
1523 1519 1517 1507 1515 1514 1516 1510 1504 1507 1506 1503 1500 1496 1494 1491 1488 1486 1485 1481 1480 1480 1480 1482 1481 1478 1479 1480 1482 1482 1483 1484 1485 1487 1490 1491 1493 1497 1499 1503 1506 1509 1512 1514 1515 1517 1518 1519 1518
1512 1517 1516 1517 1513 1512 1513 1507 1502 1506 1504 1500 1496 1493 1490 1487 1486 1485 1482 1479 1476 1475 1475 1475 1475 1473 1471 1472 1474 1473 1474 1474 1475 1477 1478 1480 1484 1488 1491 1494 1498 1501 1505 1507 1509 1511 1513 1514 1514
1522 1522 1517 1516 1510 1510 1508 1501 1499 1500 1499 1495 1491 1489 1487 1487 1486 1484 1481 1478 1474 1472 1469 1469 1469 1466 1464 1464 1464 1465 1463 1462 1464 1466 1467 1470 1473 1477 1480 1485 1489 1494 1498 1500 1501 1503 1507 1507 1508
1528 1526 1521 1513 1511 1513 1507 1499 1495 1494 1492 1490 1489 1485 1487 1489 1486 1484 1480 1476 1471 1468 1466 1463 1461 1461 1460 1457 1454 1452 1449 1450 1452 1454 1457 1460 1463 1465 1470 1475 1481 1484 1489 1492 1496 1498 1497 1500 1499
1525 1523 1519 1512 1509 1512 1504 1497 1491 1488 1484 1485 1486 1491 1492 1489 1485 1482 1478 1474 1469 1465 1461 1458 1456 1453 1451 1450 1445 1443 1442 1441 1442 1445 1446 1448 1452 1454 1457 1465 1468 1471 1478 1483 1483 1488 1490 1491 1493
1521 1523 1520 1519 1510 1504 1495 1489 1480 1480 1482 1486 1494 1496 1493 1490 1486 1481 1477 1473 1469 1464 1457 1453 1449 1446 1442 1440 1440 1437 1435 1434 1434 1432 1435 1437 1440 1442 1446 1456 1460 1462 1466 1471 1472 1477 1480 1481 1483
1526 1517 1520 1517 1513 1508 1500 1492 1482 1475 1485 1495 1497 1497 1494 1490 1486 1483 1477 1471 1466 1461 1455 1450 1445 1440 1436 1431 1429 1427 1426 1424 1427 1432 1433 1434 1433 1433 1436 1446 1452 1456 1458 1459 1462 1464 1468 1472 1472
1525 1524 1520 1516 1511 1504 1495 1494 1473 1473 1488 1496 1498 1497 1495 1491 1487 1483 1479 1474 1468 1461 1453 1446 1441 1435 1429 1424 1421 1418 1417 1419 1423 1426 1426 1426 1426 1428 1431 1434 1439 1443 1446 1450 1452 1451 1454 1458 1465
1528 1521 1514 1504 1504 1509 1494 1499 1481 1483 1497 1497 1498 1496 1495 1491 1487 1485 1481 1475 1467 1460 1452 1443 1435 1429 1424 1418 1412 1410 1410 1412 1416 1418 1418 1419 1419 1421 1424 1427 1432 1437 1442 1445 1446 1448 1448 1450 1449
1526 1522 1519 1511 1505 1500 1489 1495 1482 1485 1497 1500 1498 1496 1495 1491 1487 1483 1478 1471 1465 1457 1451 1442 1434 1426 1421 1415 1410 1405 1405 1408 1410 1413 1413 1412 1414 1412 1416 1422 1427 1431 1434 1440 1436 1435 1442 1443 1442
1533 1532 1532 1533 1514 1503 1496 1496 1474 1491 1499 1500 1499 1498 1496 1491 1488 1484 1479 1473 1467 1461 1453 1444 1435 1427 1420 1415 1410 1406 1404 1406 1404 1403 1405 1405 1405 1408 1410 1412 1415 1419 1425 1430 1414 1420 1432 1435 1445
1529 1534 1526 1531 1519 1515 1491 1477 1483 1488 1493 1497 1497 1496 1493 1491 1487 1483 1478 1472 1465 1460 1454 1447 1436 1429 1422 1417 1411 1407 1403 1403 1400 1400 1402 1402 1403 1405 1408 1412 1416 1417 1429 1423 1425 1427 1436 1442 1444
1536 1532 1532 1522 1531 1515 1483 1474 1469 1483 1490 1495 1494 1494 1492 1489 1486 1482 1477 1471 1466 1459 1453 1448 1438 1432 1426 1420 1412 1409 1404 1403 1401 1401 1399 1400 1402 1406 1407 1412 1415 1420 1421 1424 1435 1438 1445 1445 1444
1532 1527 1527 1525 1518 1511 1504 1477 1480 1489 1493 1493 1493 1492 1489 1487 1483 1479 1476 1471 1465 1460 1454 1448 1439 1433 1429 1422 1416 1411 1406 1407 1406 1404 1406 1405 1404 1408 1409 1411 1415 1415 1419 1428 1433 1437 1445 1441 1442
1537 1532 1529 1526 1520 1510 1512 1487 1481 1488 1488 1488 1488 1487 1487 1486 1484 1480 1476 1471 1465 1458 1452 1447 1440 1433 1430 1426 1419 1417 1414 1412 1409 1408 1408 1411 1410 1409 1412 1414 1415 1415 1419 1424 1433 1434 1434 1440 1437